Regional Weather Roundup
Issued by NWS

Home | Current Version | Previous Version | Text Only | Print | Product List | Glossary On
Versions: 1 2 3 4 5 6 7 8 9 10 11 12 13 14 15 16 17 18 19 20 21 22 23 24 25 26 27 28 29 30 31 32 33 34 35 36 37 38 39 40 41 42 43 44 45 46 47 48 49 50
000
ASUS43 KTOP 251959
RWRKS

WEATHER ROUNDUP FOR KANSAS
NATIONAL WEATHER SERVICE GOODLAND KS
300 PM CDT TUE APR 25 2017

NOTE:  "FAIR" INDICATES FEW OR NO CLOUDS BELOW 12,000 FEET WITH NO
SIGNIFICANT WEATHER AND/OR OBSTRUCTIONS TO VISIBILITY.

KSZ001>006-013>018-027>032-041>047-252100-
NORTHWEST KANSAS

CITY           SKY/WX    TMP DP  RH WIND       PRES   REMARKS
GOODLAND       CLOUDY    61  39  44 N15G23    29.54F
HAYS           CLOUDY    55  44  66 N15       29.53R
HILL CITY      PTSUNNY   59  43  55 N16       29.55R
RUSSELL        CLOUDY    54  44  69 N15       29.51R
$$

KSZ061>065-074>080-084>089-252100-
SOUTHWEST KANSAS

CITY           SKY/WX    TMP DP  RH WIND       PRES   REMARKS
DODGE CITY     CLOUDY    57  46  66 N14       29.52R
ELKHART          N/A     55  44  66 N9          N/A
GARDEN CITY    CLOUDY    58  44  60 NE12G23   29.53S
GREAT BEND     CLOUDY    55  46  71 N14       29.52R
$$

KSZ066>073-081>083-090>101-252100-
SOUTHEAST KANSAS

CITY           SKY/WX    TMP DP  RH WIND       PRES   REMARKS
CHANUTE        CLOUDY    74  57  55 S13       29.41S
COFFEYVILLE    PTSUNNY   78  60  53 S15G26    29.40S
HUTCHINSON     CLOUDY    63  51  65 N17       29.45R
MEDICINE LODGE   N/A     65  52  62 N16       29.45R
NEWTON         CLOUDY    66  55  67 N13       29.44R
PARSONS        CLOUDY    77  59  53 S12       29.42S
WICHITA INTL   CLOUDY    71  57  61 NW12      29.41R
WICHITA JABRA  PTSUNNY   71  57  61 N12       29.40R
WINFIELD       CLOUDY    76  59  55 W7        29.39R
$$

KSZ007>012-019>026-033>040-048>060-102>105-252100-
NORTHEAST KANSAS

CITY           SKY/WX    TMP DP  RH WIND       PRES   REMARKS
CONCORDIA      CLOUDY    52  44  74 N15       29.50R
EMPORIA        CLOUDY    71  57  61 W3        29.39S
LAWRENCE       CLOUDY    71  57  61 S7        29.41R
MANHATTAN      CLOUDY    65  52  62 VRB7      29.43R
OLATHE IND     CLOUDY    71  56  58 S14       29.42S
OLATHE EXE     CLOUDY    70  57  63 S10       29.41F
SALINA         CLOUDY    61  48  62 N18       29.46S
TOPEKA BILLARD CLOUDY    70  55  59 SW6       29.40R
TOPEKA FORBES  CLOUDY    72  57  59 W5        29.41R
$$




USA.gov is the U.S. government's official web portal to all federal, state and local government web resources and services.